This is the latest recevied weather packets stored in our database for station/object K9RJT. If no packets are shown the sender has not sent any weather packets the latest 10 day(s).
| Time | Temp. | Humidity | Pressure | Rain* | Wind** | Luminosity | Snow |
|---|---|---|---|---|---|---|---|
| 1778117916 | 23.33° C | 36% | 1012.8 hPa | 0 mm | - | 88 W/m² | - |
| 1778117613 | 23.33° C | 35% | 1012.8 hPa | 0 mm | - | 99 W/m² | - |
| 1778117311 | 23.89° C | 34% | 1012.8 hPa | 0 mm | - | 100 W/m² | - |
| 1778117006 | 23.89° C | 36% | 1012.5 hPa | 0 mm | - | 95 W/m² | - |
| 1778116703 | 23.89° C | 37% | 1012.6 hPa | 0 mm | - | 98 W/m² | - |
| 1778116400 | 23.89° C | 36% | 1012.8 hPa | 0 mm | - | 114 W/m² | - |
| 1778116100 | 23.89° C | 37% | 1012.9 hPa | 0 mm | - | 150 W/m² | - |
| 1778115795 | 23.89° C | 37% | 1012.8 hPa | 0 mm | - | 138 W/m² | - |
| 1778115493 | 23.89° C | 36% | 1012.8 hPa | 0 mm | - | 136 W/m² | - |
| 1778115190 | 23.89° C | 37% | 1012.6 hPa | 0 mm | - | 134 W/m² | - |
| 1778114887 | 23.89° C | 37% | 1012.7 hPa | 0 mm | - | 137 W/m² | - |
| 1778114584 | 24.44° C | 38% | 1012.6 hPa | 0 mm | - | 141 W/m² | - |
| 1778114281 | 24.44° C | 36% | 1012.9 hPa | 0 mm | - | 144 W/m² | - |
| 1778113975 | 24.44° C | 36% | 1012.4 hPa | 0 mm | - | 171 W/m² | - |
| 1778113671 | 24.44° C | 36% | 1012.8 hPa | 0 mm | - | 161 W/m² | - |
| 1778113367 | 24.44° C | 37% | 1012.4 hPa | 0 mm | - | 164 W/m² | - |
| 1778113065 | 24.44° C | 36% | 1012.5 hPa | 0 mm | - | 173 W/m² | - |
| 1778112762 | 25° C | 36% | 1012.6 hPa | 0 mm | - | 169 W/m² | - |
| 1778112458 | 24.44° C | 36% | 1012.2 hPa | 0 mm | - | 157 W/m² | - |
| 1778112154 | 25° C | 37% | 1012.3 hPa | 0 mm | - | 152 W/m² | - |
| 1778111851 | 25° C | 37% | 1012.3 hPa | 0 mm | - | 162 W/m² | - |
| 1778111546 | 25° C | 37% | 1012.1 hPa | 0 mm | - | 168 W/m² | - |
| 1778111244 | 25.56° C | 36% | 1012 hPa | 0 mm | - | 170 W/m² | - |
| 1778110941 | 26.11° C | 35% | 1012.1 hPa | 0 mm | - | 172 W/m² | - |
| 1778110639 | 25.56° C | 33% | 1012 hPa | 0 mm | - | 273 W/m² | - |
* Rain latest hour (hover to see other rain measurements)
** Current wind speed in m/s (hover to see current wind gust speed)